Home > Weather > Montreux > Past weeks

Flag for Switzerland Weather for the Past 2 Weeks in Montreux, Vaud, Switzerland

Now
40 °F

Chilly.


Feels Like: 34 °F
Forecast: 23 / 34 °F
Wind: 9 mph from East

Location: Aigle

Current Time: Feb 11, 2016 at 12:34:50 PM

Latest Report: Feb 11, 2016 at 11:00 AM


Visibility: N/A

Pressure: 29.87 "Hg

Humidity: 59%

Dew point: 26 °F

Location of MontreuxLocation

Historic Weather in Montreux — Graph

°F

Montreux Temperature Yesterday

Maximum temperature yesterday: 41 °F (at 3:00 AM)
Minimum temperature yesterday: 36 °F (at 9:00 PM)
Average temperature yesterday: 39 °F

High & Low Weather Summary for the Past Weeks

 TemperatureHumidityPressure
High57 °F (Feb 1, 2:00 PM)100% (Feb 5, 9:00 AM)30.60 "Hg (Feb 5, 9:00 AM)
Low31 °F (Feb 11, 7:00 AM)32% (Feb 7, 8:00 AM)29.47 "Hg (Feb 9, 6:00 PM)
Average44 °F79%30.17 "Hg
* Reported Jan 27 11:00 AM — Feb 11 11:00 AM, Montreux, Weather by CustomWeather, © 2016

Note: Actual official high and low records may vary slightly from our data, if they occured in-between our weather recording intervals... More about our weather records

Advertising

Montreux Weather History for the Previous 24 Hours

 ConditionsComfort  
Time TempWeatherWind HumidityBarometerVisibility
11:00 AM
Thu, Feb 11
40 °FChilly.9 mph59%29.87 "HgN/A
10:00 AM37 °FChilly.8 mph68%29.87 "HgN/A
9:00 AM34 °FChilly.8 mph81%29.88 "HgN/A
8:00 AM32 °FChilly.5 mph87%29.90 "HgN/A
7:00 AM31 °FChilly.3 mph92%29.90 "HgN/A
5:00 AM32 °FChilly.3 mph94%29.89 "HgN/A
9:00 PM
Wed, Feb 10
36 °FChilly.9 mph87%29.81 "HgN/A
8:00 PM37 °FChilly.2 mph76%29.79 "HgN/A
7:00 PM37 °FChilly.2 mph76%29.78 "HgN/A
6:00 PM40 °FChilly.2 mph57%29.76 "HgN/A
5:00 PM39 °FChilly.6 mph74%29.74 "HgN/A
4:00 PM40 °FChilly.5 mph67%29.74 "HgN/A
3:00 PM40 °FQuite cool.3 mph66%29.73 "HgN/A
2:00 PM40 °FQuite cool.8 mph59%29.72 "HgN/A
1:00 PM40 °FOvercast.3 mph60%29.73 "Hg9 mi
12:00 PM41 °FQuite cool.2 mph70%29.74 "HgN/A
Weather by CustomWeather, © 2016

See weather overviewHow to use our weather pages